Location: Gandikunta
(16.3784°N, 80.8378°E)
Time: 04:02:54
(UTC+00:00)

Cosmos 2369 Rocket - Pass Details

Date: 19 May 2025
Orbit: 826 x 853 km, 71.0° (Epoch: 13 June)

Event Time Altitude Azimuth Distance (km) Brightness Sun altitude
Rises 13:23:21 0° 356° (N) 3,406 5.7 -5.7°
Reaches altitude 10° 13:26:00 10° 5° (N) 2,467 4.9 -6.3°
Maximum altitude 13:31:11 36° 71° (ENE) 1,304 2.9 -7.5°
Drops below altitude 10° 13:36:18 10° 137° (SE) 2,449 4.0 -8.6°
Enters shadow 13:36:57 - 139° (SE) 2,671 4.2 -8.7°
